Theta_e
304 303 303 303 303 303 305 305 305 305 305 305 305 305 305 306 305 307 306 305 305 304 304 303 303 303 304 304 304 304 304 304 304 305 305 304 304 303 303 301 301 300 300
303 304 303 303 304 305 305 304 304 304 305 305 305 305 305 306 305 303 302 300 299 299 303 304 304 303 302 302 302 302 302 303 303 303 303 304 304 303 303 303 302 301 300
305 304 304 305 305 304 304 303 303 303 304 304 304 304 304 303 303 303 302 300 298 297 297 298 298 298 299 300 302 302 304 304 304 304 304 304 303 303 302 302 301 300 300
305 304 305 305 304 303 303 302 301 298 301 302 303 304 304 304 305 305 304 300 299 299 299 300 301 302 301 299 299 303 304 304 304 305 304 303 302 302 302 301 301 301 301
305 305 304 304 305 304 302 301 302 301 300 299 298 300 303 304 304 304 304 300 300 300 300 300 300 300 300 301 302 302 301 299 300 300 302 302 302 302 301 301 301 301 301
304 305 305 305 305 305 304 305 305 303 303 302 300 299 299 301 303 304 303 300 300 301 301 301 301 301 300 300 300 301 300 300 299 299 299 299 299 300 301 301 301 300 300
304 304 305 305 305 305 305 305 304 305 305 305 301 298 296 300 302 303 302 300 301 301 301 300 300 300 300 300 300 300 300 300 300 300 299 299 299 299 300 300 300 300 300
305 305 305 304 304 304 304 305 305 304 305 304 301 297 297 300 300 301 302 302 302 301 300 300 300 300 300 300 299 299 300 300 300 300 300 299 299 299 299 299 299 300 300
304 304 304 304 303 304 304 303 303 305 304 302 301 299 297 297 298 299 300 301 301 300 300 300 300 300 299 299 299 299 300 299 299 300 299 298 299 298 298 298 299 299 300
304 303 303 299 296 303 304 303 302 302 302 302 297 297 297 299 299 299 300 300 301 301 301 301 300 299 298 298 298 299 299 299 299 298 297 297 297 297 298 297 297 298 299
303 302 300 298 298 298 298 298 298 298 298 297 297 297 299 300 300 300 300 300 300 300 299 298 298 298 298 298 297 298 299 299 298 296 296 296 296 297 297 296 296 297 298
299 301 302 302 302 301 300 300 300 299 298 298 297 299 300 301 301 300 300 300 300 298 298 297 298 297 298 297 297 298 299 298 296 296 296 295 295 297 296 296 296 296 297
304 304 304 304 303 303 303 301 301 300 299 300 300 299 300 301 301 301 300 300 300 299 298 297 297 297 296 296 296 296 296 296 295 294 294 296 296 296 296 296 296 296 296
304 304 304 303 304 304 303 304 302 301 300 299 300 301 301 301 301 301 300 300 299 299 298 297 296 296 296 296 295 294 294 293 293 295 295 295 294 296 296 296 296 297 297
303 303 303 303 303 303 303 303 302 302 301 301 300 301 301 301 301 301 300 300 299 298 298 297 296 296 296 296 296 295 293 294 296 296 296 295 295 295 295 296 296 296 296
304 303 303 302 303 303 303 303 302 302 302 301 301 301 302 302 301 301 300 300 299 299 298 297 297 296 295 295 295 295 294 295 296 297 295 295 295 295 295 296 296 296 296
303 303 303 303 303 303 303 303 303 303 302 302 301 301 301 302 302 301 300 300 299 299 298 298 297 296 295 294 295 295 294 295 296 296 296 295 295 295 295 296 296 296 295
302 303 303 303 302 303 303 303 303 303 303 302 302 301 301 302 301 301 300 300 299 299 298 298 297 297 296 295 295 295 294 295 297 296 296 295 294 295 295 296 296 296 296
304 303 303 303 303 303 302 302 303 303 303 302 302 301 301 302 301 301 301 300 299 299 298 298 298 297 297 295 295 295 293 294 296 296 296 295 294 295 295 296 295 295 295
305 305 305 304 303 303 303 303 303 303 303 303 302 302 301 302 302 301 301 300 299 299 298 298 298 297 297 296 295 294 293 296 296 295 295 295 295 295 295 295 295 295 295
304 304 304 304 304 303 303 303 303 303 303 303 303 302 301 301 302 302 301 300 299 299 298 298 298 297 297 295 295 294 295 297 296 295 295 295 295 295 294 293 295 295 294
304 304 304 304 304 303 303 304 304 304 303 303 303 303 302 302 302 302 301 300 300 299 298 298 298 297 297 295 295 293 296 297 296 296 296 296 295 294 295 294 295 295 296
303 303 304 304 304 304 304 304 304 303 303 303 303 302 302 303 302 301 300 301 299 299 298 298 297 298 296 295 294 294 297 297 296 296 295 295 295 294 295 295 295 296 297
303 304 304 304 304 304 304 304 303 304 303 303 303 303 303 303 302 301 302 301 299 299 299 298 297 298 297 296 294 294 297 297 297 297 297 297 297 297 297 297 298 298 299
304 304 304 304 304 304 304 304 304 304 303 303 303 303 302 303 302 302 301 301 300 300 299 298 297 298 297 295 294 295 298 298 298 298 298 298 298 299 298 299 299 300 300
304 304 304 304 304 304 304 304 303 303 302 302 302 302 302 301 301 301 301 300 300 300 299 297 298 297 297 295 293 294 298 297 298 298 298 299 299 299 300 300 301 301 301
Wind_Speed
13 13 14 12 11 11 13 15 17 18 17 18 16 12 11 11 12 12 14 16 17 17 17 17 15 14 12 10 9 8 7 8 8 8 7 9 8 10 8 9 12 15 15
13 14 16 16 15 14 17 17 20 21 23 23 21 19 17 15 15 17 19 20 19 16 13 13 13 14 13 12 12 12 10 9 11 11 11 12 11 13 15 16 17 16 18
14 15 17 16 15 16 18 21 20 19 20 21 21 21 21 20 17 19 20 22 21 18 16 14 15 15 12 11 10 10 10 10 12 13 14 16 15 17 19 16 16 19 18
13 12 11 13 16 16 16 16 17 18 18 18 18 16 15 13 12 11 16 20 21 23 22 21 21 20 20 16 12 12 12 14 15 15 15 18 15 17 18 20 22 20 19
9 9 13 13 12 13 15 16 17 18 19 19 18 15 13 13 14 11 11 15 16 20 21 21 22 20 19 18 15 12 13 15 15 16 15 15 18 18 20 21 22 22 19
7 11 11 11 9 9 8 10 11 12 15 17 19 19 16 11 13 11 9 11 13 14 17 17 17 16 15 15 14 10 13 15 17 17 17 18 19 20 21 21 21 21 22
11 11 9 10 10 11 11 11 10 10 10 12 16 20 15 13 12 9 9 10 12 14 15 17 15 15 16 13 10 10 10 12 14 15 16 16 18 19 20 21 20 20 18
11 8 8 8 9 11 13 11 11 10 8 9 14 19 16 12 12 10 11 12 12 14 16 17 16 15 15 16 15 13 12 13 14 14 16 16 18 19 20 20 19 20 18
9 6 5 6 7 6 10 14 14 8 9 9 13 16 16 14 12 12 11 12 12 13 13 14 15 15 16 18 16 15 10 11 14 12 16 19 19 18 18 19 18 18 17
6 5 8 11 12 5 7 11 13 12 11 11 12 12 12 15 17 16 16 16 15 15 12 14 15 15 17 19 19 15 12 14 13 13 19 18 18 21 18 18 16 16 16
4 5 7 11 15 16 13 12 14 11 10 9 10 10 12 14 14 13 16 19 17 16 16 17 17 16 18 20 19 14 14 12 16 22 23 22 22 22 17 16 12 14 14
9 9 9 8 9 11 12 13 16 18 13 13 10 9 11 13 12 13 16 19 20 17 16 17 19 21 21 21 19 13 11 17 22 24 26 27 27 24 19 16 13 11 12
6 3 3 4 5 6 7 8 9 15 16 13 13 9 8 10 11 13 12 15 19 20 18 20 22 22 21 19 19 19 20 23 25 24 25 26 25 21 16 15 11 10 8
3 3 3 3 5 8 9 9 8 8 11 11 8 8 9 9 11 14 16 16 20 22 22 23 24 23 23 23 23 22 23 25 24 25 24 22 24 20 14 12 12 13 8
0 3 4 5 6 7 9 7 6 6 6 10 10 7 11 12 12 14 16 16 20 22 23 25 28 30 31 32 31 27 25 24 26 26 23 21 20 21 15 12 10 10 10
2 3 4 6 5 9 11 8 7 7 7 6 10 9 9 10 12 15 16 17 20 20 23 26 28 30 32 34 33 30 26 28 28 26 22 20 16 17 15 12 10 8 8
5 5 5 7 8 10 10 9 9 9 10 7 7 9 9 13 13 15 16 16 20 21 22 25 28 31 34 35 35 31 28 28 29 26 22 19 15 14 12 11 11 8 9
4 7 7 6 9 10 10 7 9 12 12 9 7 9 9 12 14 15 16 16 19 21 20 23 28 31 36 37 38 33 29 29 29 29 25 18 15 13 12 11 9 9 9
4 3 7 10 11 10 12 7 10 11 14 13 9 9 9 11 15 15 16 16 18 20 20 22 27 30 36 39 39 35 31 30 29 32 24 16 13 13 10 8 8 9 8
5 6 10 11 11 12 10 9 11 15 17 14 13 11 10 10 13 17 16 16 17 19 19 22 26 30 36 40 40 37 33 33 31 31 20 14 12 11 9 9 8 7 7
8 7 10 13 13 9 10 10 12 14 14 14 16 11 12 12 14 17 16 15 15 18 19 20 25 30 37 40 40 37 34 35 33 23 17 14 12 10 9 8 7 6 6
10 10 13 13 10 9 10 11 13 12 15 14 12 10 13 9 14 15 13 14 16 16 18 19 23 30 36 39 38 36 36 36 25 22 18 15 12 11 10 8 9 8 8
9 11 10 8 7 8 9 14 12 14 15 11 10 7 7 11 16 13 9 19 14 13 16 18 21 29 34 38 35 33 36 28 23 21 20 17 13 11 10 10 9 9 11
8 10 9 9 8 8 12 15 16 16 11 9 5 8 7 13 9 10 18 14 12 12 18 16 20 27 33 37 33 31 33 23 23 18 16 16 14 14 13 13 11 11 14
7 7 8 9 9 10 11 12 10 10 11 9 11 9 6 10 12 12 11 13 15 19 13 13 17 25 31 34 30 30 30 21 17 20 20 19 21 18 14 14 17 14 14
8 7 8 8 6 8 11 12 13 14 13 12 12 11 11 11 12 13 11 13 14 15 12 14 22 23 29 31 29 28 28 22 21 14 16 15 17 13 16 19 15 14 17
Wind_Direction
356 15 4 2 34 33 22 35 38 37 41 44 48 39 28 28 37 34 35 34 33 33 33 31 32 27 16 7 6 13 23 17 354 346 335 334 329 337 337 342 333 330 320
41 32 36 61 61 55 45 51 61 56 54 55 52 49 46 47 50 58 50 43 34 25 23 26 28 25 21 26 33 34 28 12 10 3 356 356 346 336 335 325 331 329 327
57 53 62 63 64 56 63 66 64 56 56 55 56 55 57 64 58 53 43 35 28 27 27 20 13 9 8 12 9 4 1 2 351 343 340 335 334 332 327 328 333 330 332
70 66 61 66 69 68 62 59 54 53 53 48 44 39 36 36 28 31 32 34 44 44 43 40 33 27 21 14 6 8 7 357 344 330 330 329 333 337 337 335 338 346 346
80 65 81 80 64 65 68 64 59 57 53 47 40 31 20 20 26 23 31 33 50 41 37 35 32 28 21 16 15 19 24 11 357 354 353 342 330 334 337 335 335 331 332
77 98 85 70 54 42 46 42 39 47 44 37 32 23 21 18 23 25 43 49 44 30 19 15 10 7 11 14 15 18 9 8 7 3 357 344 340 334 327 325 331 328 327
104 101 74 49 44 38 23 15 15 17 22 18 16 16 21 26 30 30 16 14 14 7 7 6 7 1 358 355 342 341 338 338 340 347 352 344 337 334 326 325 322 320 318
110 90 50 38 34 28 20 16 8 2 4 6 8 16 23 26 22 12 2 355 353 358 356 3 3 355 350 348 348 340 314 324 321 323 339 332 330 328 321 316 317 314 313
110 64 28 5 348 352 14 19 17 358 356 5 2 7 18 19 17 7 10 12 2 360 358 359 357 354 351 348 339 341 329 333 336 312 329 328 321 325 322 316 309 316 312
107 54 47 24 26 25 357 353 355 2 359 360 1 13 30 41 35 28 20 9 4 6 3 359 356 353 346 347 344 345 341 342 338 339 337 331 330 327 320 318 303 301 303
125 89 70 55 53 51 50 46 38 23 11 10 11 40 49 37 27 19 24 24 16 11 4 2 357 353 346 344 344 346 345 343 338 335 336 332 329 331 326 329 316 299 292
116 114 98 77 58 52 52 49 43 37 37 36 42 60 51 33 28 25 16 13 12 0 360 359 355 349 346 347 349 353 338 328 329 332 330 329 333 344 339 324 317 300 298
111 93 63 37 8 7 13 17 27 37 40 41 44 46 38 31 25 8 7 7 8 2 355 356 355 352 349 348 345 335 330 331 333 333 330 335 344 345 333 330 325 317 293
97 63 66 41 348 349 347 341 342 5 24 27 30 29 25 12 4 1 358 357 1 8 3 1 1 6 6 4 359 348 342 343 344 340 337 335 341 345 342 337 334 344 335
35 9 349 343 346 354 346 334 327 321 336 13 7 354 358 359 355 347 349 352 359 7 4 5 9 9 6 3 359 355 352 350 346 342 339 335 337 342 339 341 337 335 336
264 313 328 348 335 332 342 345 339 349 323 344 3 5 358 346 350 351 351 349 353 359 4 9 7 7 5 2 358 354 355 353 353 354 352 347 339 339 340 344 344 342 341
243 268 290 332 340 331 326 335 344 333 324 313 342 358 350 353 340 344 349 346 355 356 2 6 6 5 2 1 359 356 353 352 355 355 352 350 342 337 341 344 342 348 341
257 255 281 315 324 322 329 316 336 338 341 321 307 335 335 344 333 336 345 345 351 359 357 0 3 4 3 359 357 355 353 352 355 357 356 350 349 343 343 350 353 354 347
303 259 283 309 317 314 324 312 319 326 344 344 308 311 318 328 340 329 338 342 349 358 359 356 358 359 359 358 357 356 354 352 353 353 353 352 353 348 349 356 353 353 347
286 310 323 323 315 302 309 313 309 322 323 326 325 311 298 305 347 337 332 339 349 358 2 358 354 354 355 356 356 357 356 355 352 351 358 360 1 2 7 2 357 352 8
285 303 322 321 324 318 317 314 325 320 323 319 317 302 288 290 323 326 332 334 345 354 356 350 352 353 355 356 355 357 358 358 356 7 11 13 13 17 2 14 35 24 27
280 305 319 322 315 317 325 325 315 320 325 320 323 304 294 301 328 325 319 343 336 340 346 342 351 353 356 357 356 358 1 357 9 14 14 17 23 20 28 51 52 52 55
288 310 312 332 321 314 318 332 317 321 323 318 325 312 316 336 324 313 318 320 316 327 332 332 347 351 356 359 360 1 1 5 13 20 26 32 32 35 58 40 52 79 64
308 313 311 316 307 310 316 321 319 325 320 325 333 341 311 322 322 313 314 325 315 328 333 326 344 351 357 358 1 5 4 15 18 23 26 30 39 45 53 58 55 61 48
330 323 313 304 294 312 321 324 336 342 338 319 319 332 332 329 331 340 330 328 325 330 334 327 338 351 359 358 4 7 7 17 30 39 37 33 30 34 45 61 52 59 92
329 311 301 302 291 313 320 330 336 336 334 325 319 321 327 332 334 337 345 340 330 351 343 331 346 355 357 2 7 7 11 18 12 11 18 33 29 44 59 45 70 80 86